Regional Weather Roundup
Issued by NWS

Home | Current Version | Previous Version | Text Only | Print | Product List | Glossary Off
Versions: 1 2 3 4 5 6 7 8 9 10 11 12 13 14 15 16 17 18 19 20 21 22 23 24 25 26 27

000
ASUS45 KBOU 290807
RWRCO

WEATHER ROUNDUP FOR COLORADO
NATIONAL WEATHER SERVICE DENVER/BOULDER CO
200 AM MDT MON AUG 29 2016

NOTE: "FAIR" INDICATES FEW OR NO CLOUDS BELOW 12000 FEET WITH NO
SIGNIFICANT WEATHER AND/OR OBSTRUCTIONS TO VISIBILITY.

COZ001>005-013-030-031-290900-
...NORTHWEST COLORADO...

CITY           SKY/WX    TMP DP  RH WIND       PRES   REMARKS
CRAIG          FAIR      53  40  61 E3        30.32S
HAYDEN         FAIR      54  36  50 E9        30.34S
MEEKER         FAIR      48  42  80 NE3       30.33S
MOUNT WERNER   NOT AVBL
STEAMBOAT SPGS FAIR      47  37  68 NW3       30.37F
WALDEN         FAIR      41  34  75 S3        30.46F
$$

COZ006>008-011-290900-
...WEST CENTRAL VALLEYS...

CITY           SKY/WX    TMP DP  RH WIND       PRES   REMARKS
GRAND JUNCTION FAIR      59  45  59 SE8       30.23S
MONTROSE       FAIR      54  45  71 S5        30.32R
EAGLE          MOCLDY    52  48  87 CALM      30.41F
RIFLE          FAIR      56  49  77 E5        30.30S
DELTA          FAIR      60  46  60 CALM      30.28S
NUCLA            N/A    N/A N/A N/A CALM      30.33S
$$

COZ017>023-064>068-290900-
...SOUTHWEST COLORADO...

CITY           SKY/WX    TMP DP  RH WIND       PRES   REMARKS
DURANGO        FAIR      49  41  74 N6        30.32R
CORTEZ         FAIR      49  45  86 E5        30.28R
PAGOSA SPRINGS FAIR      57  37  46 N6        30.38F
TELLURIDE      FAIR      44  42  94 SE6       30.48F
WOLF CREEK PAS FAIR      36  34  93 MISG      30.65S
$$

COZ009-010-012-014-032>034-037-058>063-290900-
...CENTRAL COLORADO...

CITY           SKY/WX    TMP DP  RH WIND       PRES   REMARKS
ASPEN          FAIR      49  40  71 S5        30.41F
BUENA VISTA    MOCLDY    50  46  87 E5        30.49S
COPPER MTN     CLOUDY    46  32  57 SE7       30.67F
BERTHOUD PASS  FAIR      41  28  60 E10       30.70S
COTTONWOOD PAS CLOUDY    48  39  71 SW8       30.56F
GUNNISON       FAIR      46  39  76 NE3       30.46F
KREMMLING      FAIR      46  41  81 CALM      30.45S
LEADVILLE      CLOUDY    42  39  89 CALM      30.55F
MONARCH PASS   FOG       36  34  93 E24       30.73F VSB<1/4
SALIDA         CLOUDY    53  49  88 CALM      30.54F
SUNLIGHT       FAIR      43  37  81 SW5       30.61F
WILKERSON PASS CLOUDY    39  36  87 NE5       30.67F
$$

COZ069>075-290900-
...SAN LUIS VALLEY/SANGRE DE CRISTO MOUNTAINS...

CITY           SKY/WX    TMP DP  RH WIND       PRES   REMARKS
ALAMOSA        CLOUDY    52  50  93 N10       30.41S
LA VETA PASS   MOCLDY    43  37  81 NW5G21    30.54F
SAGUACHE       CLOUDY    50  46  87 SE5       30.47R
$$

COZ035-036-038>040-290900-
...NORTHERN COLORADO FRONT RANGE...

CITY           SKY/WX    TMP DP  RH WIND       PRES   REMARKS
DENVER INTL AP CLOUDY    62  50  64 S20       30.28S
DMNS CITY PARK   N/A     63  48  57 S12G17    30.28R
AURORA         MOCLDY    61  49  63 S16       30.30S
FRONT RANGE AP NOT AVBL
ERIE MUNI ARPT FAIR      66  44  43 S6        30.24F
BOULDER MUN AP FAIR      68  41  37 SW5       30.24F
CENTENNIAL     MOCLDY    60  48  64 SW14      30.32R
BROOMFIELD     FAIR      64  45  48 S9        30.28F
FORT COLLINS   FAIR      63  46  55 S8        30.22S
LONGMONT       FAIR      63  49  60 CALM      30.25S
$$

COZ041-046-047-076>085-087-088-290900-
...PIKES PEAK/PALMER DIVIDE AND SOUTHERN FOOTHILLS...

CITY           SKY/WX    TMP DP  RH WIND       PRES   REMARKS
COLO. SPRINGS  LGT RAIN  54  52  93 NW14G23   30.42F
A. F. ACADEMY  LGT RAIN  53  52  98 SW9       30.43F
SCHRIEVER AFB  NOT AVBL
ELLICOTT       NOT AVBL
FALCON         RAIN      52  50  93 W8        30.45S
FORT CARSON    RAIN      55  49  80 NW15      30.36F
LIMON          FAIR      59  54  83 CALM      30.26F
MONUMENT HILL  LGT RAIN  50  46  87 SW15      30.45R
TRINIDAD       CLOUDY    60  48  64 NW14      30.32R
$$

COZ042>045-048>051-090-091-290900-
...NORTHEAST COLORADO...

CITY           SKY/WX    TMP DP  RH WIND       PRES   REMARKS
GREELEY ARPT   FAIR      63  48  59 S9        30.24R
AKRON          FAIR      66  46  48 S6        30.20S
BURLINGTON     MOCLDY    63  58  83 NW7       30.21S
WRAY           NOT AVBL
STERLING       FAIR      63  50  63 N5        30.17R
HOLYOKE        FAIR      61  57  88 E5        30.16S
FORT MORGAN    FAIR      63  49  59 NW8       30.21S
$$

COZ086-089-092>099-290900-
...SOUTHEAST COLORADO...

CITY           SKY/WX    TMP DP  RH WIND       PRES   REMARKS
PUEBLO         FAIR      63  52  67 NW26G35   30.25S
LA JUNTA       FAIR      68  52  56 NW20G31   30.19R
LAMAR          CLOUDY    68  62  81 SE8       30.14F
SPRINGFIELD      N/A     62  62 100 S10       30.20F
$$




USA.gov is the U.S. government's official web portal to all federal, state and local government web resources and services.